Regional Weather Roundup
Issued by NWS

Home | Current Version | Previous Version | Text Only | Print | Product List | Glossary On
Versions: 1 2 3 4 5 6 7 8 9 10 11 12 13 14 15 16 17 18 19 20 21 22 23 24 25 26 27 28
000
ASUS45 KCYS 261110
RWRWY

WYOMING REGIONAL WEATHER ROUNDUP
NATIONAL WEATHER SERVICE CHEYENNE WY
500 AM MDT MON JUN 26 2017

NOTE:  "FAIR" INDICATES FEW OR NO CLOUDS BELOW 12,000 FEET
WITH NO SIGNIFICANT WEATHER AND/OR OBSTRUCTIONS TO VISIBILITY.

WYZ001-261200-
YELLOWSTONE NATIONAL PARK

CITY           SKY/WX    TMP DP  RH WIND       PRES   REMARKS
LK YELLOWSTONE   N/A     35  33  92 NW3       30.42F
W YELLOWSTONE  NOT AVBL

$$
WYZ002>013-054>058-071-098>099-261200-
NORTHERN WYOMING

CITY           SKY/WX    TMP DP  RH WIND       PRES   REMARKS
JACKSON        FAIR      43  37  81 CALM      30.34S
CODY           FAIR      55  37  50 S6        30.24S
GREYBULL       FAIR      54  37  52 SE3       30.19S
WORLAND        FAIR      49  36  61 SE3       30.20S
SHERIDAN       FAIR      44  39  82 CALM      30.19S
BUFFALO        FAIR      52  35  52 S7        30.24S
GILLETTE       FAIR      52  32  46 S12       30.22F
NEWCASTLE      FAIR      45  32  61 N8        30.28S

$$
WYZ014>020-022>026-101>103-261200-
CENTRAL WYOMING

CITY           SKY/WX    TMP DP  RH WIND       PRES   REMARKS
BIG PINEY      FAIR      42  36  79 E3        30.38S
PINEDALE       FAIR      41  37  87 NW5       30.39S
DUBOIS         FAIR      43  34  70 NW10      30.40S
LANDER         FAIR      54  33  45 W6        30.29S
RIVERTON       FAIR      48  38  68 NW8       30.28F
CASPER         FAIR      41  35  79 W5        30.28F
DOUGLAS        FAIR      43  36  76 CALM      30.28F

$$
WYZ021-027>030-104>119-261200-
SOUTHERN WYOMING

CITY           SKY/WX    TMP DP  RH WIND       PRES   REMARKS
EVANSTON       FAIR      54  32  43 E6        30.33F
KEMMERER         N/A     54  32  43 N13       30.36S
FORT BRIDGER   FAIR      52  34  51 NW6       30.37R
ROCK SPRINGS   FAIR      53  27  36 E7        30.33S
DIXON          FAIR      46  30  54 CALM      30.35S
RAWLINS        FAIR      43  32  65 N3        30.35S
SARATOGA       FAIR      39  30  70 S5        30.37S
LARAMIE        FAIR      41  40  96 S10       30.37R
CHEYENNE       FAIR      51  48  89 W9        30.31S
TORRINGTON     FAIR      51  40  65 NW7       30.23R
PINE BLUFFS    FAIR      48  48 100 CALM      30.29R

$$




USA.gov is the U.S. government's official web portal to all federal, state and local government web resources and services.